Location: *
(37.5724°S, 58.0067°E)
Time: 08:07:01
(UTC+00:00)

Cosmos 1933 Rocket - Pass Details

Date: 22 January 2021
Orbit: 607 x 630 km, 82.5° (Epoch: 04 March)

Event Time Altitude Azimuth Distance (km) Brightness Sun altitude
Rises 20:12:26 0° 198° (SSW) 2,958 8.0 -32.9°
Reaches altitude 10° 20:14:52 10° 207° (SSW) 2,041 6.9 -32.9°
Enters shadow 20:16:40 21° 223° (SW) 1,450 5.8 -32.9°
